CW8077 Weather Reports


Display with metric or nautical units.
time (UTC)temp
F
wind
direction
speed
MPH
gust
MPH
rain 1hr
in
rain 24hr
in
rain mn
in
humidity
%
barometer
mb
20260504011856 64 199 0.0 1.0 0.00 0.00 0.00 52 1004.4
20260504011347 64 199 0.0 2.0 0.00 0.00 0.00 52 1004.4
20260504010847 64 199 0.0 2.0 0.00 0.00 0.00 51 1004.4
20260504010327 65 199 1.0 2.0 0.00 0.00 0.00 49 1004.4
20260504005341 65 199 2.0 5.0 0.00 0.00 0.00 50 1004.3
20260504004841 66 199 3.0 6.0 0.00 0.00 0.00 48 1004.3
20260504004341 66 196 4.0 6.0 0.00 0.00 0.00 46 1004.2
20260504003841 66 205 4.0 7.0 0.00 0.00 0.00 47 1004.2
20260504003412 66 204 5.0 7.0 0.00 0.00 0.00 46 1004.2
20260504002849 66 217 5.0 9.0 0.00 0.00 0.00 46 1004.2
20260504002349 66 219 5.0 9.0 0.00 0.00 0.00 47 1004.2
20260504001830 67 218 7.0 14.0 0.00 0.00 0.00 46 1004.2
20260504001332 67 222 9.0 14.0 0.00 0.00 0.00 44 1004.1
20260504000833 67 209 9.0 14.0 0.00 0.00 0.00 45 1004.2
20260504000332 67 213 9.0 14.0 0.00 0.00 0.00 45 1004.2
20260503235835 67 199 8.0 15.0 0.00 0.00 0.00 44 1004.2
20260503235335 67 227 12.0 18.0 0.00 0.00 0.00 44 1004.3
20260503234836 67 236 13.0 20.0 0.00 0.00 0.00 43 1004.3
20260503234331 67 227 15.0 20.0 0.00 0.00 0.00 44 1004.3
20260503233859 67 234 13.0 20.0 0.00 0.00 0.00 44 1004.3
20260503232905 67 250 11.0 19.0 0.00 0.00 0.00 43 1004.4
20260503232327 67 201 13.0 21.0 0.00 0.00 0.00 44 1004.4
20260503231828 67 182 13.0 24.0 0.00 0.00 0.00 44 1004.5
20260503231359 67 227 12.0 24.0 0.00 0.00 0.00 44 1004.5
20260503230833 67 199 12.0 22.0 0.00 0.00 0.00 43 1004.5
20260503230334 67 229 13.0 23.0 0.00 0.00 0.00 44 1004.6
20260503225904 67 213 17.0 25.0 0.00 0.00 0.00 43 1004.5
20260503225343 67 201 13.0 23.0 0.00 0.00 0.00 44 1004.6
20260503224825 67 233 16.0 23.0 0.00 0.00 0.00 44 1004.7
20260503224326 67 208 14.0 18.0 0.00 0.00 0.00 45 1004.6
20260503223857 67 205 14.0 20.0 0.00 0.00 0.00 45 1004.7
20260503223337 67 211 13.0 25.0 0.00 0.00 0.00 44 1004.6
20260503222848 66 205 17.0 25.0 0.00 0.00 0.00 44 1004.7
20260503222344 66 210 12.0 23.0 0.00 0.00 0.00 44 1004.7
20260503221846 66 221 16.0 23.0 0.00 0.00 0.00 45 1004.9
20260503221340 66 226 14.0 25.0 0.00 0.00 0.00 46 1004.8
20260503220849 66 221 14.0 25.0 0.00 0.00 0.00 45 1004.9
20260503220347 66 200 15.0 23.0 0.00 0.00 0.00 46 1004.7
20260503215827 66 206 16.0 25.0 0.00 0.00 0.00 45 1004.9
20260503215357 66 201 19.0 24.0 0.00 0.00 0.00 45 1005.1
20260503214835 65 208 15.0 24.0 0.00 0.00 0.00 45 1004.8
20260503214352 65 197 15.0 25.0 0.00 0.00 0.00 46 1004.8
20260503213852 65 201 15.0 27.0 0.00 0.00 0.00 46 1004.9
20260503213352 65 205 17.0 27.0 0.00 0.00 0.00 47 1005.0
20260503212826 65 173 12.0 28.0 0.00 0.00 0.00 46 1005.1
20260503212326 65 182 17.0 28.0 0.00 0.00 0.00 46 1005.2
20260503211826 65 213 14.0 24.0 0.00 0.00 0.00 47 1005.1
20260503211326 64 196 17.0 24.0 0.00 0.00 0.00 47 1005.2
20260503210826 64 215 14.0 25.0 0.00 0.00 0.00 46 1005.2
20260503210325 64 205 20.0 25.0 0.00 0.00 0.00 46 1005.3
20260503205827 64 221 17.0 29.0 0.00 0.00 0.00 46 1005.5
20260503205325 64 197 16.0 32.0 0.00 0.00 0.00 46 1005.5
20260503204854 64 205 19.0 32.0 0.00 0.00 0.00 46 1005.6
20260503204326 64 185 10.0 22.0 0.00 0.00 0.00 47 1005.6
20260503203853 64 207 15.0 22.0 0.00 0.00 0.00 46 1005.7
20260503203352 64 182 16.0 30.0 0.00 0.00 0.00 46 1005.7
20260503202914 63 201 20.0 30.0 0.00 0.00 0.00 47 1005.8
20260503202351 63 199 12.0 29.0 0.00 0.00 0.00 47 1006.0
20260503201852 63 211 18.0 28.0 0.00 0.00 0.00 46 1006.1
20260503201327 63 210 21.0 28.0 0.00 0.00 0.00 47 1006.0
20260503200853 63 185 10.0 22.0 0.00 0.00 0.00 52 1006.2
20260503200353 62 185 9.0 19.0 0.00 0.00 0.00 52 1006.4
20260503195825 62 187 12.0 25.0 0.00 0.00 0.00 52 1006.5
20260503195328 61 205 15.0 25.0 0.00 0.00 0.00 54 1006.6
20260503194826 61 209 15.0 22.0 0.00 0.00 0.00 55 1006.7
20260503194327 61 176 11.0 32.0 0.00 0.00 0.00 54 1006.8
20260503193826 61 193 11.0 32.0 0.00 0.00 0.00 54 1006.9
20260503193325 61 194 15.0 26.0 0.00 0.00 0.00 53 1007.1
20260503192826 61 178 16.0 21.0 0.00 0.00 0.00 53 1007.2
20260503192327 61 183 12.0 30.0 0.00 0.00 0.00 53 1007.1
20260503191853 61 217 18.0 36.0 0.00 0.00 0.00 53 1007.2
20260503191352 61 193 23.0 36.0 0.00 0.00 0.00 52 1007.1
20260503190851 61 190 20.0 27.0 0.00 0.00 0.00 49 1007.2
20260503190352 61 184 16.0 35.0 0.00 0.00 0.00 50 1007.3
20260503185827 61 201 22.0 38.0 0.00 0.00 0.00 48 1007.3
20260503185328 62 170 16.0 24.0 0.00 0.00 0.00 48 1007.3
20260503184827 62 191 14.0 23.0 0.00 0.00 0.00 49 1007.3
20260503184328 62 190 14.0 23.0 0.00 0.00 0.00 50 1007.3
20260503183854 62 192 14.0 25.0 0.00 0.00 0.00 50 1007.3
20260503183334 61 192 14.0 30.0 0.00 0.00 0.00 50 1007.4
20260503182835 61 205 24.0 32.0 0.00 0.00 0.00 49 1007.4
20260503182335 61 180 15.0 29.0 0.00 0.00 0.00 48 1007.5
20260503181835 61 160 11.0 30.0 0.00 0.00 0.00 49 1007.5
20260503181337 61 210 18.0 31.0 0.00 0.00 0.00 48 1007.5
20260503180836 61 177 13.0 25.0 0.00 0.00 0.00 49 1007.7
20260503180335 60 161 10.0 25.0 0.00 0.00 0.00 51 1007.7
20260503175836 60 174 9.0 17.0 0.00 0.00 0.00 52 1007.8
20260503175334 60 205 9.0 20.0 0.00 0.00 0.00 54 1007.9
20260503174836 59 147 9.0 24.0 0.00 0.00 0.00 54 1008.0
20260503174353 59 178 14.0 31.0 0.00 0.00 0.00 53 1008.0
20260503173853 59 194 17.0 31.0 0.00 0.00 0.00 53 1008.2
20260503173352 58 182 13.0 22.0 0.00 0.00 0.00 57 1008.2
20260503172828 58 180 10.0 22.0 0.00 0.00 0.00 58 1008.4
20260503172327 57 180 13.0 22.0 0.00 0.00 0.00 58 1008.5
20260503171826 57 176 8.0 15.0 0.00 0.00 0.00 58 1008.6
20260503171328 57 180 11.0 26.0 0.00 0.00 0.00 58 1008.7
20260503170914 57 180 16.0 28.0 0.00 0.00 0.00 57 1008.7
20260503170352 57 192 11.0 21.0 0.00 0.00 0.00 59 1008.9
20260503150915 54 182 14.0 26.0 0.00 0.00 0.00 64 1010.6
20260503150352 54 194 18.0 26.0 0.00 0.00 0.00 63 1010.7
20260503131345 52 212 16.0 25.0 0.00 0.00 0.00 59 1011.6
20260503130844 52 204 16.0 24.0 0.00 0.00 0.00 58 1011.6
20260503110336 50 197 11.0 17.0 0.00 0.01 0.00 55 1011.4
20260503090352 49 192 7.0 13.0 0.00 0.01 0.00 55 1012.2
20260503081355 49 210 8.0 15.0 0.00 0.01 0.00 55 1012.7
20260503080833 49 180 8.0 14.0 0.00 0.01 0.00 56 1012.7
20260503080357 49 191 10.0 14.0 0.00 0.01 0.00 54 1012.7
20260503072833 48 213 6.0 10.0 0.00 0.01 0.00 56 1012.9
20260503072330 48 197 7.0 10.0 0.00 0.01 0.00 58 1012.9
20260503071829 48 203 7.0 11.0 0.00 0.01 0.00 58 1013.0
20260503071331 48 197 7.0 11.0 0.00 0.01 0.00 55 1012.9
20260503070832 48 197 7.0 11.0 0.00 0.01 0.00 56 1013.0
20260503070330 48 204 6.0 10.0 0.00 0.01 0.00 56 1013.0
20260503054852 48 180 5.0 9.0 0.00 0.01 0.00 55 1013.6
20260503054413 48 191 6.0 9.0 0.00 0.01 0.00 55 1013.7
20260503053853 48 202 6.0 9.0 0.00 0.01 0.00 56 1013.7
20260503053350 48 186 6.0 9.0 0.00 0.01 0.00 57 1013.8
20260503052832 48 182 5.0 10.0 0.00 0.01 0.00 56 1013.7
20260503052402 48 203 6.0 10.0 0.00 0.01 0.00 56 1013.8
20260503051836 48 190 7.0 10.0 0.00 0.01 0.00 56 1013.8
20260503051337 48 177 8.0 10.0 0.00 0.01 0.00 55 1013.8
20260503050838 48 208 8.0 10.0 0.00 0.01 0.00 54 1013.9
20260503050339 49 199 7.0 11.0 0.00 0.01 0.00 54 1013.9
20260503045832 49 192 7.0 10.0 0.00 0.01 0.01 54 1013.9
20260503045332 49 192 6.0 12.0 0.00 0.01 0.01 54 1013.9
20260503044831 49 187 6.0 12.0 0.00 0.01 0.01 54 1013.9
20260503044333 49 196 6.0 10.0 0.00 0.01 0.01 53 1013.9
20260503043835 49 196 6.0 10.0 0.00 0.01 0.01 55 1014.0
20260503043335 49 208 7.0 10.0 0.00 0.01 0.01 53 1013.9
20260503042854 49 190 5.0 10.0 0.00 0.01 0.01 54 1014.0
20260503042354 49 190 6.0 8.0 0.00 0.01 0.01 54 1014.0
20260503041854 49 197 6.0 8.0 0.00 0.01 0.01 55 1014.1
20260503041346 50 179 6.0 9.0 0.00 0.01 0.01 55 1014.1
20260503040827 50 194 6.0 9.0 0.00 0.01 0.01 55 1014.1
20260503040327 50 192 6.0 9.0 0.00 0.01 0.01 55 1014.2
20260503035829 50 199 6.0 8.0 0.00 0.01 0.01 53 1014.3
20260503035329 50 196 5.0 9.0 0.00 0.01 0.01 54 1014.3
20260503034858 50 192 5.0 8.0 0.00 0.01 0.01 56 1014.3
20260503034334 50 207 6.0 8.0 0.00 0.01 0.01 57 1014.3
20260503033833 50 198 6.0 10.0 0.00 0.01 0.01 57 1014.3
20260503033335 50 199 6.0 10.0 0.00 0.01 0.01 55 1014.4
20260503032858 50 205 6.0 9.0 0.00 0.01 0.01 53 1014.4
20260503032339 50 196 5.0 8.0 0.00 0.01 0.01 54 1014.4
20260503031840 50 197 5.0 8.0 0.00 0.01 0.01 55 1014.5
20260503031352 50 195 5.0 8.0 0.00 0.01 0.01 54 1014.5
20260503030853 50 195 4.0 8.0 0.00 0.01 0.01 57 1014.5
20260503030355 50 195 4.0 6.0 0.00 0.01 0.01 54 1014.6
20260503025838 50 195 4.0 6.0 0.00 0.01 0.01 54 1014.7
20260503025340 50 196 4.0 6.0 0.00 0.01 0.01 55 1014.7
20260503024836 50 197 4.0 5.0 0.00 0.01 0.01 57 1014.7
20260503024338 50 192 4.0 6.0 0.00 0.01 0.01 58 1014.7
20260503023838 50 192 4.0 6.0 0.00 0.01 0.01 57 1014.7
20260503023339 50 188 4.0 6.0 0.00 0.01 0.01 61 1014.8
20260503022840 50 186 3.0 6.0 0.00 0.01 0.01 58 1014.6
20260503022342 50 187 1.0 5.0 0.00 0.01 0.01 60 1014.7
20260503021337 51 188 0.0 0.0 0.00 0.01 0.01 56 1014.7
20260503020838 52 184 0.0 0.0 0.00 0.01 0.01 52 1014.6
20260503020337 52 184 0.0 0.0 0.00 0.01 0.01 51 1014.6
20260503015840 52 188 0.0 0.0 0.00 0.01 0.01 50 1014.6
20260503015341 53 190 0.0 0.0 0.00 0.01 0.01 50 1014.5
20260503014841 53 186 0.0 0.0 0.00 0.01 0.01 48 1014.4
20260503014353 53 190 0.0 0.0 0.00 0.01 0.01 47 1014.4
20260503013832 53 189 0.0 4.0 0.00 0.01 0.01 46 1014.4
20260503013330 54 188 0.0 4.0 0.00 0.01 0.01 46 1014.3
20260503012850 54 186 0.0 6.0 0.00 0.01 0.01 45 1014.3
20260503012352 54 186 3.0 6.0 0.00 0.01 0.01 45 1014.3